KB3PHD Weather Reports


Display with metric or nautical units.
time (UTC)temp
F
wind
direction
speed
MPH
gust
MPH
rain 1hr
in
rain 24hr
in
rain mn
in
humidity
%
barometer
mb
20260505010518 72 168 8.0 11.0 0.00 0.00 0.00 40 1010.2
20260505005641 72 165 8.0 11.0 0.00 0.00 0.00 40 1010.1
20260505004518 73 166 7.0 11.0 0.00 0.00 0.00 39 1010.0
20260505003518 73 162 7.0 11.0 0.00 0.00 0.00 38 1009.9
20260505002519 73 163 6.0 10.0 0.00 0.00 0.00 38 1009.9
20260505001519 74 164 7.0 10.0 0.00 0.00 0.00 38 1009.9
20260505000519 74 167 6.0 11.0 0.00 0.00 0.00 38 1009.8
20260504235519 74 169 7.0 12.0 0.00 0.00 0.00 37 1009.8
20260504234519 74 168 8.0 13.0 0.00 0.00 0.00 36 1009.7
20260504233521 74 169 8.0 18.0 0.00 0.00 0.00 36 1009.7
20260504232521 75 170 8.0 14.0 0.00 0.00 0.00 35 1009.6
20260504231519 75 176 9.0 16.0 0.00 0.00 0.00 35 1009.5
20260504230521 75 172 8.0 15.0 0.00 0.00 0.00 35 1009.6
20260504225517 75 171 8.0 13.0 0.00 0.00 0.00 35 1009.6
20260504224517 75 170 8.0 16.0 0.00 0.00 0.00 35 1009.7
20260504223520 75 172 7.0 17.0 0.00 0.00 0.00 34 1009.7
20260504222541 75 173 12.0 22.0 0.00 0.00 0.00 34 1009.6
20260504221520 75 176 7.0 16.0 0.00 0.00 0.00 33 1009.6
20260504220537 75 181 9.0 19.0 0.00 0.00 0.00 33 1009.5
20260504215518 75 173 9.0 17.0 0.00 0.00 0.00 32 1009.4
20260504214517 75 172 11.0 17.0 0.00 0.00 0.00 32 1009.5
20260504213518 75 175 12.0 20.0 0.00 0.00 0.00 32 1009.5
20260504212521 75 171 7.0 16.0 0.00 0.00 0.00 32 1009.5
20260504211518 75 172 9.0 17.0 0.00 0.00 0.00 32 1009.5
20260504210538 75 174 12.0 23.0 0.00 0.00 0.00 32 1009.4
20260504205539 75 173 12.0 24.0 0.00 0.00 0.00 32 1009.5
20260504204518 74 173 8.0 16.0 0.00 0.00 0.00 32 1009.7
20260504203519 74 171 11.0 18.0 0.00 0.00 0.00 32 1009.6
20260504202519 74 172 12.0 23.0 0.00 0.00 0.00 32 1010.0
20260504201520 74 166 9.0 18.0 0.00 0.00 0.00 32 1010.0
20260504200519 73 166 11.0 18.0 0.00 0.00 0.00 33 1010.1
20260504195539 73 172 9.0 18.0 0.00 0.00 0.00 33 1010.3
20260504194519 73 164 10.0 18.0 0.00 0.00 0.00 33 1010.3
20260504193519 73 171 7.0 16.0 0.00 0.00 0.00 33 1010.6
20260504192519 72 192 7.0 13.0 0.00 0.00 0.00 33 1010.7
20260504191516 73 165 14.0 25.0 0.00 0.00 0.00 33 1010.9
20260504190520 73 167 11.0 16.0 0.00 0.00 0.00 33 1011.1
20260504185521 72 188 4.0 11.0 0.00 0.00 0.00 34 1011.3
20260504184520 71 157 10.0 14.0 0.00 0.01 0.00 35 1011.4
20260504183521 71 166 9.0 14.0 0.00 0.01 0.00 35 1011.6
20260504182519 71 170 12.0 19.0 0.00 0.01 0.00 35 1011.7
20260504181517 70 186 6.0 13.0 0.00 0.01 0.00 35 1011.9
20260504180518 70 179 9.0 16.0 0.00 0.01 0.00 35 1012.0
20260504175519 69 196 5.0 14.0 0.00 0.01 0.00 37 1012.2
20260504174518 69 175 10.0 14.0 0.00 0.01 0.00 37 1012.2
20260504173518 68 175 6.0 14.0 0.00 0.01 0.00 38 1012.3
20260504172518 68 175 9.0 20.0 0.00 0.01 0.00 38 1012.4
20260504171518 68 176 7.0 14.0 0.00 0.01 0.00 37 1012.6
20260504170518 68 184 4.0 12.0 0.00 0.01 0.00 36 1012.7
20260504150517 64 167 7.0 12.0 0.00 0.01 0.00 38 1013.8
20260504140518 58 172 5.0 9.0 0.00 0.01 0.00 50 1014.2
20260504130519 56 187 4.0 8.0 0.00 0.01 0.00 52 1014.7
20260504110557 52 181 6.0 10.0 0.00 0.01 0.00 58 1015.2
20260504100538 53 175 6.0 10.0 0.00 0.01 0.00 57 1015.1
20260504081519 53 272 1.0 3.0 0.00 0.01 0.00 56 1015.5
20260504080539 52 326 0.0 1.0 0.00 0.01 0.00 59 1015.4
20260504050519 52 191 1.0 3.0 0.00 0.01 0.00 53 1015.7
20260504045540 52 193 2.0 3.0 0.00 0.01 0.00 53 1015.6
20260504044519 52 195 2.0 4.0 0.00 0.01 0.00 52 1015.7
20260504043540 52 188 2.0 3.0 0.00 0.01 0.00 52 1015.7
20260504042521 52 186 2.0 4.0 0.00 0.01 0.00 51 1015.7
20260504041517 52 187 2.0 3.0 0.00 0.01 0.00 51 1015.6
20260504040517 53 171 4.0 6.0 0.00 0.01 0.00 49 1015.6
20260504035540 53 176 4.0 5.0 0.00 0.01 0.01 50 1015.7
20260504034541 53 184 4.0 5.0 0.00 0.01 0.01 51 1015.6
20260504033517 53 172 5.0 8.0 0.00 0.01 0.01 48 1015.5
20260504032518 52 171 5.0 8.0 0.00 0.01 0.01 51 1015.4
20260504031518 53 184 3.0 6.0 0.00 0.01 0.01 51 1015.4
20260504030518 53 188 1.0 4.0 0.00 0.01 0.01 49 1015.3
20260504025521 54 158 1.0 5.0 0.00 0.01 0.01 47 1015.2
20260504024518 53 148 0.0 5.0 0.00 0.01 0.01 47 1015.1
20260504023518 54 335 0.0 3.0 0.00 0.01 0.01 48 1015.1
20260504022518 54 321 0.0 0.0 0.00 0.01 0.01 46 1015.0
20260504021519 53 152 3.0 5.0 0.00 0.01 0.01 49 1015.0
20260504020518 56 0.0 0.0 0.00 0.01 0.01 44 1015.0
20260504015519 56 265 0.0 2.0 0.00 0.01 0.01 43 1014.9
20260504014519 56 147 0.0 2.0 0.00 0.01 0.01 41 1014.9
20260504013519 56 166 2.0 3.0 0.00 0.01 0.01 43 1014.9
20260504012539 56 174 0.0 2.0 0.00 0.01 0.01 40 1014.7
20260504011520 57 335 0.0 0.0 0.00 0.01 0.01 39 1014.7